QPF
0.02 0.02 0.02 0.01 0.00 0.00 0.01 0.01 0.02 0.02 0.02 0.01 0.01 0.00 0.00 0.00 0.00 0.00 0.00 0.00 0.00 0.00 0.00 0.00 0.00 0.00 0.00 0.01 0.02 0.04 0.06 0.05 0.03 0.03 0.05 0.06 0.06 0.05
0.02 0.02 0.02 0.01 0.00 0.00 0.01 0.01 0.01 0.01 0.01 0.01 0.01 0.01 0.00 0.00 0.00 0.00 0.00 0.00 0.00 0.00 0.00 0.00 0.00 0.00 0.00 0.01 0.02 0.03 0.06 0.07 0.06 0.03 0.03 0.04 0.05 0.04
0.01 0.01 0.01 0.01 0.01 0.01 0.01 0.01 0.01 0.01 0.01 0.01 0.01 0.01 0.01 0.00 0.00 0.00 0.01 0.01 0.00 0.00 0.00 0.00 0.01 0.00 0.01 0.01 0.01 0.02 0.04 0.05 0.06 0.06 0.04 0.03 0.02 0.02
0.01 0.01 0.01 0.01 0.01 0.01 0.01 0.01 0.01 0.01 0.02 0.02 0.01 0.01 0.02 0.01 0.01 0.00 0.01 0.02 0.01 0.01 0.00 0.00 0.00 0.00 0.00 0.01 0.01 0.01 0.02 0.02 0.03 0.04 0.04 0.03 0.02 0.02
0.02 0.02 0.01 0.01 0.01 0.01 0.01 0.01 0.01 0.01 0.02 0.02 0.02 0.02 0.02 0.02 0.02 0.02 0.03 0.04 0.03 0.02 0.01 0.00 0.00 0.01 0.01 0.01 0.01 0.01 0.01 0.01 0.02 0.02 0.02 0.02 0.01 0.01
0.01 0.02 0.02 0.02 0.01 0.01 0.01 0.01 0.02 0.02 0.01 0.02 0.02 0.02 0.02 0.02 0.02 0.03 0.05 0.06 0.05 0.03 0.02 0.01 0.01 0.01 0.01 0.01 0.01 0.01 0.01 0.01 0.01 0.02 0.02 0.01 0.02 0.01
0.01 0.01 0.01 0.02 0.02 0.02 0.02 0.02 0.02 0.02 0.02 0.02 0.02 0.02 0.02 0.03 0.03 0.02 0.08 0.09 0.08 0.05 0.03 0.02 0.02 0.02 0.01 0.01 0.01 0.01 0.01 0.01 0.01 0.01 0.02 0.02 0.02 0.02
0.01 0.00 0.01 0.01 0.01 0.01 0.01 0.01 0.01 0.01 0.02 0.02 0.02 0.02 0.02 0.02 0.02 0.01 0.05 0.09 0.08 0.05 0.04 0.03 0.02 0.02 0.02 0.02 0.01 0.01 0.01 0.01 0.01 0.00 0.00 0.01 0.02 0.02
0.01 0.01 0.00 0.00 0.00 0.01 0.01 0.00 0.01 0.01 0.01 0.02 0.02 0.01 0.01 0.02 0.01 0.01 0.02 0.05 0.05 0.03 0.03 0.04 0.02 0.02 0.02 0.01 0.01 0.01 0.01 0.01 0.01 0.01 0.00 0.00 0.01 0.01
0.01 0.01 0.01 0.01 0.01 0.01 0.01 0.01 0.01 0.01 0.01 0.01 0.01 0.01 0.01 0.02 0.01 0.01 0.02 0.03 0.03 0.03 0.03 0.06 0.05 0.02 0.01 0.01 0.01 0.00 0.00 0.00 0.00 0.00 0.00 0.00 0.01 0.01
0.01 0.01 0.01 0.01 0.01 0.00 0.01 0.02 0.01 0.01 0.01 0.00 0.01 0.02 0.01 0.02 0.01 0.01 0.01 0.02 0.03 0.02 0.02 0.05 0.04 0.02 0.01 0.01 0.00 0.00 0.00 0.00 0.00 0.00 0.01 0.01 0.01 0.01
0.01 0.01 0.01 0.01 0.01 0.01 0.01 0.01 0.01 0.01 0.01 0.01 0.01 0.01 0.01 0.01 0.01 0.01 0.01 0.01 0.02 0.02 0.01 0.03 0.03 0.01 0.01 0.00 0.00 0.00 0.00 0.00 0.01 0.01 0.01 0.01 0.01 0.01
0.02 0.01 0.01 0.01 0.01 0.01 0.02 0.02 0.02 0.01 0.01 0.01 0.01 0.01 0.01 0.01 0.01 0.01 0.01 0.01 0.01 0.01 0.01 0.01 0.01 0.01 0.01 0.01 0.00 0.00 0.01 0.01 0.00 0.00 0.01 0.01 0.01 0.01
0.02 0.01 0.01 0.01 0.01 0.01 0.02 0.01 0.01 0.02 0.02 0.01 0.01 0.01 0.01 0.01 0.00 0.00 0.00 0.01 0.01 0.01 0.01 0.01 0.02 0.02 0.02 0.02 0.01 0.01 0.01 0.01 0.00 0.00 0.00 0.00 0.00 0.01
0.02 0.02 0.02 0.01 0.01 0.01 0.01 0.01 0.02 0.02 0.01 0.01 0.01 0.01 0.01 0.01 0.01 0.00 0.00 0.00 0.00 0.01 0.01 0.01 0.02 0.02 0.02 0.03 0.02 0.02 0.01 0.01 0.01 0.00 0.00 0.00 0.00 0.00
0.00 0.01 0.02 0.02 0.02 0.01 0.01 0.01 0.01 0.01 0.01 0.01 0.01 0.01 0.01 0.01 0.01 0.00 0.00 0.00 0.00 0.01 0.01 0.01 0.01 0.01 0.01 0.02 0.02 0.02 0.02 0.01 0.01 0.01 0.00 0.00 0.00 0.01
0.01 0.01 0.01 0.02 0.03 0.02 0.02 0.01 0.01 0.02 0.02 0.02 0.01 0.01 0.01 0.01 0.01 0.01 0.01 0.01 0.01 0.01 0.01 0.01 0.01 0.00 0.01 0.01 0.01 0.01 0.02 0.02 0.02 0.02 0.01 0.01 0.00 0.01
0.02 0.01 0.01 0.01 0.02 0.03 0.03 0.03 0.02 0.02 0.01 0.01 0.01 0.01 0.01 0.01 0.01 0.01 0.01 0.01 0.01 0.01 0.00 0.00 0.00 0.00 0.01 0.01 0.01 0.01 0.01 0.01 0.02 0.02 0.02 0.01 0.01 0.01
0.02 0.01 0.01 0.01 0.01 0.01 0.02 0.02 0.02 0.02 0.02 0.02 0.02 0.02 0.02 0.01 0.01 0.01 0.01 0.01 0.01 0.01 0.00 0.00 0.00 0.01 0.01 0.02 0.02 0.01 0.01 0.02 0.02 0.02 0.02 0.01 0.01 0.00
0.02 0.02 0.02 0.02 0.02 0.01 0.01 0.01 0.02 0.02 0.02 0.02 0.02 0.02 0.02 0.02 0.01 0.01 0.01 0.01 0.01 0.01 0.01 0.01 0.01 0.01 0.01 0.01 0.01 0.01 0.00 0.01 0.02 0.02 0.02 0.02 0.01 0.01
0.02 0.02 0.02 0.02 0.02 0.02 0.02 0.02 0.02 0.02 0.02 0.03 0.02 0.02 0.02 0.02 0.02 0.01 0.01 0.01 0.01 0.01 0.01 0.01 0.02 0.02 0.01 0.01 0.01 0.01 0.01 0.01 0.01 0.01 0.02 0.02 0.01 0.01
0.02 0.02 0.02 0.02 0.01 0.02 0.02 0.02 0.02 0.02 0.02 0.02 0.02 0.02 0.03 0.02 0.02 0.02 0.01 0.01 0.01 0.01 0.01 0.01 0.01 0.01 0.01 0.01 0.01 0.01 0.01 0.01 0.01 0.01 0.02 0.02 0.02 0.01
0.03 0.03 0.04 0.03 0.03 0.02 0.02 0.02 0.02 0.02 0.02 0.02 0.03 0.03 0.03 0.02 0.02 0.02 0.02 0.02 0.01 0.01 0.02 0.02 0.02 0.02 0.02 0.01 0.01 0.01 0.01 0.01 0.01 0.01 0.02 0.02 0.02 0.01
MSLP
1014.79 1014.96 1015.12 1015.23 1015.28 1015.22 1015.04 1014.75 1014.35 1013.89 1013.39 1012.93 1012.55 1012.29 1012.16 1012.18 1012.30 1012.49 1012.71 1012.90 1013.01 1013.04 1012.97 1012.80 1012.56 1012.25 1011.87 1011.41 1010.82 1010.05 1009.05 1007.78 1006.21 1004.36 1002.30 1000.12 997.97 995.99
1013.73 1013.93 1014.12 1014.30 1014.42 1014.46 1014.38 1014.19 1013.88 1013.48 1013.03 1012.58 1012.18 1011.87 1011.69 1011.63 1011.69 1011.84 1012.03 1012.22 1012.38 1012.47 1012.49 1012.42 1012.29 1012.09 1011.81 1011.45 1010.96 1010.31 1009.44 1008.32 1006.93 1005.28 1003.42 1001.45 999.48 997.65
1012.63 1012.80 1013.01 1013.22 1013.41 1013.54 1013.58 1013.51 1013.32 1013.03 1012.67 1012.28 1011.90 1011.58 1011.35 1011.23 1011.21 1011.29 1011.42 1011.58 1011.73 1011.85 1011.92 1011.93 1011.89 1011.80 1011.64 1011.40 1011.04 1010.54 1009.85 1008.93 1007.77 1006.37 1004.78 1003.07 1001.33 999.69
1011.52 1011.62 1011.79 1012.01 1012.24 1012.45 1012.59 1012.66 1012.62 1012.48 1012.25 1011.96 1011.65 1011.36 1011.11 1010.94 1010.85 1010.84 1010.89 1010.98 1011.09 1011.20 1011.29 1011.35 1011.38 1011.38 1011.33 1011.22 1011.02 1010.69 1010.20 1009.51 1008.60 1007.49 1006.19 1004.76 1003.29 1001.88
1010.43 1010.42 1010.51 1010.68 1010.91 1011.16 1011.40 1011.59 1011.71 1011.74 1011.67 1011.53 1011.33 1011.10 1010.88 1010.69 1010.55 1010.46 1010.42 1010.44 1010.48 1010.54 1010.62 1010.70 1010.78 1010.85 1010.90 1010.92 1010.86 1010.70 1010.41 1009.96 1009.32 1008.49 1007.50 1006.37 1005.18 1004.00
1009.37 1009.21 1009.17 1009.25 1009.44 1009.70 1009.99 1010.29 1010.54 1010.73 1010.84 1010.86 1010.81 1010.69 1010.54 1010.37 1010.21 1010.08 1009.98 1009.91 1009.89 1009.90 1009.95 1010.02 1010.12 1010.24 1010.37 1010.49 1010.56 1010.57 1010.47 1010.24 1009.85 1009.30 1008.59 1007.75 1006.84 1005.90
1008.38 1008.05 1007.86 1007.81 1007.90 1008.12 1008.41 1008.76 1009.12 1009.45 1009.71 1009.90 1010.01 1010.03 1009.98 1009.88 1009.75 1009.61 1009.49 1009.38 1009.30 1009.27 1009.28 1009.34 1009.45 1009.60 1009.77 1009.97 1010.15 1010.29 1010.35 1010.32 1010.15 1009.85 1009.41 1008.84 1008.19 1007.49
1007.50 1007.01 1006.65 1006.45 1006.41 1006.53 1006.77 1007.11 1007.51 1007.92 1008.31 1008.64 1008.89 1009.06 1009.14 1009.15 1009.10 1009.01 1008.90 1008.79 1008.70 1008.65 1008.64 1008.69 1008.79 1008.95 1009.16 1009.40 1009.66 1009.89 1010.09 1010.21 1010.23 1010.14 1009.93 1009.60 1009.19 1008.72
1006.78 1006.15 1005.63 1005.27 1005.08 1005.06 1005.21 1005.48 1005.86 1006.29 1006.73 1007.15 1007.52 1007.82 1008.04 1008.17 1008.23 1008.23 1008.20 1008.14 1008.08 1008.04 1008.04 1008.08 1008.18 1008.35 1008.57 1008.83 1009.13 1009.43 1009.71 1009.94 1010.10 1010.18 1010.16 1010.04 1009.84 1009.58
1006.24 1005.50 1004.87 1004.37 1004.03 1003.86 1003.87 1004.02 1004.31 1004.69 1005.12 1005.57 1006.00 1006.39 1006.72 1006.98 1007.17 1007.30 1007.37 1007.40 1007.41 1007.43 1007.46 1007.52 1007.63 1007.79 1008.01 1008.28 1008.58 1008.91 1009.24 1009.54 1009.81 1010.01 1010.13 1010.18 1010.16 1010.09
1005.83 1005.05 1004.35 1003.75 1003.29 1002.98 1002.84 1002.85 1003.00 1003.27 1003.62 1004.03 1004.47 1004.90 1005.31 1005.67 1005.98 1006.24 1006.44 1006.59 1006.70 1006.79 1006.88 1006.98 1007.11 1007.27 1007.48 1007.73 1008.03 1008.36 1008.70 1009.04 1009.37 1009.65 1009.89 1010.06 1010.18 1010.25
1005.45 1004.68 1003.96 1003.33 1002.79 1002.38 1002.10 1001.97 1001.97 1002.09 1002.33 1002.65 1003.03 1003.46 1003.90 1004.33 1004.73 1005.10 1005.43 1005.70 1005.93 1006.12 1006.28 1006.43 1006.58 1006.75 1006.95 1007.18 1007.46 1007.77 1008.11 1008.46 1008.81 1009.14 1009.44 1009.71 1009.93 1010.11
1004.92 1004.21 1003.54 1002.92 1002.37 1001.91 1001.54 1001.29 1001.16 1001.14 1001.24 1001.44 1001.74 1002.11 1002.54 1003.00 1003.47 1003.93 1004.36 1004.75 1005.09 1005.37 1005.61 1005.82 1006.01 1006.19 1006.38 1006.60 1006.85 1007.13 1007.45 1007.79 1008.14 1008.49 1008.83 1009.15 1009.43 1009.68
1004.09 1003.46 1002.87 1002.32 1001.81 1001.36 1000.97 1000.66 1000.43 1000.30 1000.28 1000.37 1000.57 1000.87 1001.26 1001.72 1002.22 1002.74 1003.25 1003.73 1004.17 1004.55 1004.87 1005.13 1005.36 1005.56 1005.75 1005.96 1006.19 1006.45 1006.74 1007.06 1007.40 1007.74 1008.09 1008.42 1008.73 1009.01
1002.82 1002.28 1001.79 1001.34 1000.93 1000.54 1000.19 999.88 999.62 999.44 999.34 999.34 999.46 999.69 1000.04 1000.48 1000.99 1001.55 1002.12 1002.67 1003.19 1003.65 1004.04 1004.36 1004.63 1004.86 1005.07 1005.27 1005.48 1005.72 1005.99 1006.28 1006.60 1006.93 1007.26 1007.58 1007.89 1008.18
1001.11 1000.64 1000.24 999.91 999.61 999.34 999.08 998.84 998.61 998.43 998.31 998.28 998.35 998.55 998.86 999.29 999.80 1000.38 1000.99 1001.60 1002.18 1002.70 1003.16 1003.54 1003.86 1004.12 1004.35 1004.56 1004.77 1004.99 1005.24 1005.51 1005.80 1006.10 1006.40 1006.69 1006.97 1007.23
999.10 998.65 998.32 998.09 997.92 997.78 997.65 997.51 997.37 997.26 997.18 997.17 997.24 997.43 997.74 998.17 998.69 999.29 999.93 1000.58 1001.21 1001.79 1002.30 1002.73 1003.10 1003.40 1003.65 1003.88 1004.09 1004.31 1004.54 1004.78 1005.03 1005.29 1005.55 1005.80 1006.03 1006.26
997.08 996.60 996.30 996.14 996.07 996.06 996.05 996.05 996.03 996.01 996.02 996.07 996.20 996.43 996.76 997.20 997.75 998.37 999.03 999.72 1000.38 1001.00 1001.56 1002.03 1002.44 1002.77 1003.06 1003.30 1003.52 1003.73 1003.94 1004.15 1004.36 1004.57 1004.77 1004.96 1005.14 1005.31
995.42 994.89 994.57 994.44 994.43 994.50 994.61 994.72 994.82 994.92 995.02 995.17 995.37 995.65 996.03 996.50 997.07 997.71 998.40 999.11 999.79 1000.44 1001.02 1001.53 1001.96 1002.32 1002.62 1002.87 1003.09 1003.28 1003.46 1003.63 1003.79 1003.94 1004.08 1004.20 1004.32 1004.44
994.49 993.88 993.52 993.37 993.37 993.48 993.65 993.83 994.02 994.21 994.41 994.64 994.91 995.25 995.68 996.19 996.78 997.44 998.13 998.84 999.53 1000.18 1000.76 1001.28 1001.71 1002.08 1002.37 1002.62 1002.82 1002.99 1003.13 1003.25 1003.35 1003.43 1003.50 1003.56 1003.61 1003.66
994.57 993.88 993.45 993.24 993.21 993.30 993.46 993.67 993.90 994.14 994.39 994.67 995.00 995.38 995.84 996.37 996.96 997.61 998.29 998.97 999.64 1000.26 1000.82 1001.31 1001.73 1002.07 1002.34 1002.56 1002.73 1002.85 1002.94 1003.01 1003.04 1003.05 1003.05 1003.03 1003.01 1003.01
995.73 994.97 994.47 994.18 994.07 994.09 994.21 994.37 994.58 994.81 995.07 995.36 995.70 996.09 996.54 997.06 997.63 998.25 998.88 999.52 1000.13 1000.69 1001.20 1001.63 1002.00 1002.29 1002.51 1002.68 1002.80 1002.87 1002.90 1002.90 1002.87 1002.81 1002.74 1002.65 1002.57 1002.51
997.86 997.07 996.49 996.12 995.90 995.82 995.84 995.92 996.05 996.22 996.44 996.69 996.99 997.35 997.77 998.24 998.76 999.30 999.86 1000.41 1000.94 1001.41 1001.83 1002.19 1002.48 1002.70 1002.86 1002.96 1003.02 1003.03 1003.01 1002.94 1002.85 1002.74 1002.61 1002.46 1002.32 1002.21
Thickness
5670 5670 5669 5669 5668 5667 5666 5665 5662 5660 5660 5662 5660 5658 5656 5654 5652 5651 5651 5648 5647 5646 5646 5646 5646 5646 5646 5646 5646 5646 5645 5645 5645 5645 5645 5645 5646 5646
5665 5665 5664 5665 5664 5662 5661 5661 5660 5658 5657 5658 5656 5654 5651 5649 5647 5647 5646 5643 5642 5642 5641 5641 5641 5641 5640 5640 5640 5639 5640 5640 5639 5639 5639 5639 5640 5640
5663 5662 5660 5660 5659 5658 5657 5656 5654 5653 5651 5652 5652 5650 5647 5646 5643 5642 5641 5640 5639 5637 5636 5636 5635 5635 5634 5634 5634 5633 5633 5634 5634 5633 5633 5634 5634 5634
5659 5658 5657 5655 5654 5653 5652 5651 5650 5649 5647 5645 5645 5643 5643 5641 5639 5637 5637 5636 5635 5632 5631 5630 5630 5629 5628 5628 5627 5627 5627 5628 5628 5628 5628 5628 5628 5628
5655 5654 5653 5652 5650 5649 5647 5646 5645 5644 5642 5640 5639 5637 5637 5635 5633 5632 5632 5631 5630 5628 5626 5625 5625 5624 5623 5622 5622 5622 5621 5622 5622 5622 5622 5622 5623 5623
5652 5650 5649 5647 5645 5644 5642 5640 5639 5637 5636 5635 5633 5632 5630 5630 5628 5627 5627 5626 5625 5625 5623 5621 5620 5619 5618 5617 5616 5616 5616 5616 5616 5617 5617 5617 5617 5617
5647 5645 5644 5641 5639 5637 5636 5635 5633 5631 5630 5628 5627 5627 5625 5623 5623 5623 5622 5621 5621 5620 5619 5618 5617 5616 5615 5613 5612 5611 5611 5611 5611 5611 5611 5611 5611 5611
5641 5640 5638 5635 5632 5629 5627 5626 5625 5625 5625 5623 5622 5622 5622 5621 5619 5618 5616 5615 5615 5615 5614 5613 5612 5612 5612 5611 5609 5607 5606 5606 5605 5605 5605 5605 5605 5605
5636 5635 5633 5631 5627 5626 5623 5620 5618 5617 5616 5618 5618 5618 5617 5616 5614 5612 5611 5610 5610 5610 5607 5608 5608 5607 5607 5605 5604 5602 5601 5601 5600 5600 5600 5600 5599 5599
5630 5629 5628 5626 5624 5622 5620 5618 5617 5615 5612 5611 5613 5614 5612 5610 5608 5607 5606 5604 5603 5602 5600 5601 5602 5602 5601 5600 5598 5597 5596 5595 5595 5594 5594 5593 5593 5593
5623 5622 5621 5620 5618 5614 5613 5613 5612 5611 5608 5605 5604 5603 5602 5600 5599 5598 5597 5596 5596 5596 5595 5595 5596 5595 5595 5594 5593 5591 5590 5589 5589 5588 5587 5587 5587 5587
5616 5615 5612 5611 5609 5607 5607 5607 5606 5606 5604 5601 5598 5596 5595 5594 5592 5592 5592 5591 5591 5591 5591 5589 5590 5589 5589 5590 5588 5586 5585 5584 5583 5582 5582 5581 5581 5581
5607 5607 5606 5603 5601 5599 5599 5600 5600 5599 5598 5597 5595 5593 5591 5589 5588 5586 5586 5586 5586 5586 5586 5583 5583 5583 5583 5583 5582 5581 5580 5580 5578 5578 5576 5576 5575 5575
5599 5599 5598 5594 5592 5591 5591 5592 5591 5589 5590 5589 5588 5587 5586 5584 5583 5582 5581 5580 5580 5580 5579 5577 5576 5576 5576 5576 5576 5575 5573 5573 5573 5573 5572 5571 5569 5569
5590 5588 5587 5585 5584 5584 5583 5583 5582 5582 5583 5582 5582 5581 5580 5579 5576 5575 5574 5572 5572 5571 5571 5571 5570 5570 5570 5571 5571 5570 5568 5567 5567 5567 5567 5567 5566 5565
5578 5578 5576 5576 5575 5575 5575 5575 5575 5576 5576 5576 5576 5575 5573 5571 5569 5568 5567 5566 5565 5565 5564 5564 5563 5563 5563 5564 5564 5564 5563 5563 5562 5561 5561 5561 5560 5560
5567 5568 5569 5569 5569 5569 5569 5569 5569 5569 5568 5568 5568 5567 5566 5565 5563 5562 5561 5560 5561 5561 5559 5557 5556 5555 5555 5556 5556 5557 5556 5556 5556 5555 5554 5554 5554 5553
5556 5558 5558 5559 5559 5560 5560 5560 5561 5561 5561 5561 5560 5560 5559 5559 5557 5556 5554 5554 5555 5556 5555 5553 5550 5548 5548 5549 5548 5550 5550 5550 5549 5548 5547 5547 5548 5547
5548 5549 5549 5550 5550 5550 5550 5551 5552 5552 5552 5553 5553 5553 5552 5552 5551 5550 5549 5548 5548 5549 5548 5547 5545 5544 5545 5548 5548 5542 5543 5543 5541 5540 5540 5540 5540 5540
5540 5541 5541 5541 5541 5541 5541 5542 5543 5543 5544 5544 5545 5545 5545 5545 5544 5544 5543 5543 5543 5543 5542 5541 5540 5540 5540 5542 5541 5538 5534 5535 5534 5533 5533 5532 5531 5529
5532 5532 5532 5532 5532 5532 5533 5533 5534 5535 5535 5536 5537 5537 5537 5537 5537 5537 5537 5535 5535 5536 5536 5536 5535 5532 5531 5530 5531 5531 5529 5525 5525 5525 5524 5523 5522 5522
5523 5523 5523 5523 5523 5523 5524 5524 5525 5526 5527 5527 5528 5528 5528 5528 5529 5529 5530 5530 5529 5529 5529 5528 5526 5524 5523 5524 5525 5525 5522 5518 5515 5512 5511 5512 5513 5515
5514 5514 5513 5513 5513 5514 5515 5515 5516 5517 5517 5518 5519 5519 5519 5520 5520 5521 5521 5521 5521 5521 5520 5519 5518 5516 5516 5516 5516 5515 5513 5510 5508 5505 5504 5502 5500 5500